Jackson, MS

6:20 PM CST on January 19, 2018 (GMT -0600)
Jackson-Evers International

Weather History for KJAN - September, 2014

Change the Weather History Date:

Tuesday, September 30, 2014

  Actual Average Record
Temperature  
Mean Temperature 77 °F 71 °F  
Max Temperature 90 °F 82 °F 97 °F (1927)
Min Temperature 64 °F 59 °F 37 °F (1967)
Degree Days  
Heating Degree Days 0 1  
Month to date heating degree days 0 6  
Since 1 July heating degree days 0 7  
Cooling Degree Days 12 6  
Month to date cooling degree days 399 327  
Year to date cooling degree days 2129 2126  
Growing Degree Days 27 (Base 50)    
Moisture  
Dew Point 65 °F    
Average Humidity 67    
Maximum Humidity 93    
Minimum Humidity 41    
Precipitation  
Precipitation 0.00 in 0.11 in 3.70 in (1915)
Month to date precipitation 1.72 3.03  
Year to date precipitation 45.40 40.31  
Sea Level Pressure  
Sea Level Pressure 29.88 in    
Wind  
Wind Speed 2 mph (ESE)    
Max Wind Speed 9 mph    
Max Gust Speed 15 mph    
Visibility 9 miles    
Events      
T = Trace of Precipitation, MM = Missing Value Source: NWS Daily Summary

Daily Weather History Graph

Daily Weather History Graph

Search for Another Location

Airport or City:

Trip Planner

Search our weather history database for the weather conditions in past years. The results will help you decide how hot, cold, wet, or windy it might be!

Date:

Astronomy

Sep. 30, 2014 Rise Set
Actual Time 6:53 AM CDT 6:46 PM CDT
Civil Twilight 6:29 AM CDT 7:10 PM CDT
Nautical Twilight 6:00 AM CDT 7:39 PM CDT
Astronomical Twilight 5:32 AM CDT 8:07 PM CDT
Moon 12:46 PM CDT (9/30) 11:31 PM CDT (9/30)
Length of Visible Light 12h 41m
Length of Day
11h 52m
Waxing Crescent, 38% of the Moon is Illuminated
Sep 30
Waxing Crescent
Oct 1
First Quarter
Oct 8
Full
Oct 15
Last Quarter
Oct 23
New

Hourly Weather History & Observations

Time (CDT) Temp. Heat Index Dew Point Humidity Pressure Visibility Wind Dir Wind Speed Gust Speed Precip Events Conditions
12:54 AM 69.1 °F - 66.0 °F 90% 29.88 in 10.0 mi Calm Calm - N/A   Clear
1:54 AM 68.0 °F - 66.0 °F 93% 29.88 in 10.0 mi Calm Calm - N/A   Clear
2:54 AM 66.0 °F - 64.0 °F 93% 29.88 in 10.0 mi Calm Calm - N/A   Clear
3:15 AM 64.9 °F - 64.0 °F 97% 29.90 in 1.5 mi Calm Calm - N/A   Clear
3:26 AM 66.9 °F - 64.9 °F 93% 29.90 in 4.0 mi Calm Calm - N/A   Clear
3:54 AM 66.9 °F - 64.9 °F 93% 29.88 in 10.0 mi Calm Calm - N/A   Clear
4:54 AM 66.9 °F - 64.9 °F 93% 29.89 in 10.0 mi Calm Calm - N/A   Clear
5:54 AM 66.9 °F - 64.0 °F 90% 29.90 in 10.0 mi Calm Calm - N/A   Clear
6:54 AM 64.0 °F - 63.0 °F 96% 29.91 in 6.0 mi Calm Calm - N/A   Clear
7:54 AM 69.1 °F - 66.0 °F 90% 29.92 in 9.0 mi Calm Calm - N/A   Clear
8:54 AM 75.9 °F - 69.1 °F 79% 29.93 in 10.0 mi Calm Calm - N/A   Clear
9:54 AM 82.0 °F 85.5 °F 69.1 °F 65% 29.93 in 10.0 mi SSW 3.5 mph - N/A   Partly Cloudy
10:54 AM 82.0 °F 84.5 °F 66.9 °F 60% 29.92 in 10.0 mi East 4.6 mph - N/A   Mostly Cloudy
11:54 AM 82.9 °F 85.0 °F 66.0 °F 56% 29.92 in 10.0 mi Calm Calm - N/A   Mostly Cloudy
12:54 PM 84.9 °F 86.6 °F 64.9 °F 51% 29.90 in 10.0 mi Variable 3.5 mph - N/A   Mostly Cloudy
1:54 PM 86.0 °F 86.8 °F 63.0 °F 46% 29.88 in 10.0 mi East 8.1 mph - N/A   Mostly Cloudy
2:54 PM 88.0 °F 88.4 °F 62.1 °F 42% 29.85 in 10.0 mi Variable 4.6 mph - N/A   Scattered Clouds
3:54 PM 89.1 °F 89.3 °F 62.1 °F 40% 29.84 in 10.0 mi NNE 4.6 mph - N/A   Scattered Clouds
4:54 PM 86.0 °F 86.3 °F 62.1 °F 44% 29.83 in 10.0 mi Calm Calm - N/A   Partly Cloudy
5:54 PM 84.9 °F 86.6 °F 64.9 °F 51% 29.83 in 10.0 mi East 3.5 mph - N/A   Partly Cloudy
6:54 PM 79.0 °F - 66.0 °F 64% 29.84 in 10.0 mi East 4.6 mph - N/A   Partly Cloudy
7:54 PM 78.1 °F - 66.0 °F 66% 29.86 in 10.0 mi ESE 4.6 mph - N/A   Partly Cloudy
8:54 PM 73.9 °F - 66.0 °F 76% 29.87 in 10.0 mi Calm Calm - N/A   Partly Cloudy
9:54 PM 73.0 °F - 66.0 °F 79% 29.87 in 10.0 mi South 3.5 mph - N/A   Clear
10:54 PM 71.1 °F - 64.9 °F 81% 29.87 in 10.0 mi SSE 5.8 mph - N/A   Clear
11:54 PM 68.0 °F - 66.0 °F 93% 29.90 in 10.0 mi Calm Calm - N/A   Clear